Overview Statistics Trail Chart Weather Telemetry Raw packets
 

This is the latest recevied weather packets stored in our database for station/object KC0OOO-WX. If no packets are shown the sender has not sent any weather packets the latest 10 day(s).

<< 41 42 43 44 45 46 47 >>
Time Temp. Humidity Pressure Rain* Wind** Luminosity Snow
1777119051 6.11° C 45% 1014.2 hPa 0 mm - - -
1777118450 6.67° C 43% 1014.2 hPa 0 mm - - -
1777117850 7.22° C 40% 1014.2 hPa 0 mm - - -
1777117220 7.78° C 39% 1014.2 hPa 0 mm - - -
1777116621 8.33° C 38% 1014.2 hPa 0 mm - - -
1777116021 8.33° C 37% 1014.2 hPa 0 mm - - -
1777115421 8.33° C 36% 1013.9 hPa 0 mm - - -
1777114821 8.33° C 35% 1013.9 hPa 0 mm - - -
1777114220 8.33° C 35% 1013.5 hPa 0 mm - - -
1777113620 8.33° C 34% 1013.5 hPa 0 mm - - -
1777113020 8.33° C 34% 1013.5 hPa 0 mm - - -
1777112420 7.78° C 36% 1013.5 hPa 0 mm - - -
1777111820 7.22° C 38% 1013.2 hPa 0 mm - - -
1777111221 7.78° C 41% 1013.2 hPa 0 mm - - -
1777110620 7.78° C 41% 1013.2 hPa 0 mm - - -
1777110020 7.78° C 39% 1013.2 hPa 0 mm - - -
1777109420 6.67° C 42% 1012.9 hPa 0 mm - - -
1777108820 6.11° C 41% 1012.9 hPa 0 mm - - -
1777108220 5° C 48% 1012.9 hPa 0 mm - - -
1777107620 4.44° C 47% 1012.9 hPa 0 mm - - -
1777107020 4.44° C 47% 1013.5 hPa 0 mm - - -
1777106420 4.44° C 46% 1013.5 hPa 0 mm - - -
1777105820 4.44° C 45% 1013.2 hPa 0 mm - - -
1777105220 4.44° C 47% 1013.2 hPa 0 mm - - -
1777104620 4.44° C 47% 1013.5 hPa 0 mm - - -

* Rain latest hour (hover to see other rain measurements)
** Current wind speed in m/s (hover to see current wind gust speed)